When you browse on this site, cookies collect data to enhance your experience and personalize the content and advertising you see.
Visit our Privacy Policy to learn more. By continuing to use the site, you agree to this use of cookies and data.
  • In Hungary
  • List of Countries
  • For 7 days
  • Water Temperature
  • Weather Map
  • News
  • Weather Widgets
  • user-avatar
    Login

    Hourly Weather Kolesnikov

    Today, 17 October, Thursday

    Time Temperature Precipitation Wind Pressure Humidity
    00:00 +15°C° 0 mm 4 mps 762 mmHg 75%
    01:00 +15°C° 0 mm 4 mps 762 mmHg 77%
    02:00 +14°C° 0 mm 4 mps 762 mmHg 80%
    03:00 +14°C° 0 mm 4 mps 763 mmHg 81%
    04:00 +13°C° 0 mm 4 mps 763 mmHg 83%
    05:00 +13°C° 0 mm 4 mps 763 mmHg 84%
    06:00 +12°C° 0 mm 4 mps 763 mmHg 86%
    07:00 +13°C° 0 mm 5 mps 763 mmHg 81%
    08:00 +14°C° 0 mm 5 mps 763 mmHg 77%
    09:00 +14°C° 0 mm 6 mps 763 mmHg 72%
    10:00 +16°C° 0 mm 6 mps 763 mmHg 65%
    11:00 +19°C° 0 mm 6 mps 763 mmHg 58%
    12:00 +20°C° 0 mm 6 mps 762 mmHg 51%
    13:00 +21°C° 0 mm 6 mps 762 mmHg 48%
    14:00 +22°C° 0 mm 5 mps 762 mmHg 45%
    15:00 +22°C° 0 mm 5 mps 761 mmHg 42%
    16:00 +21°C° 0 mm 5 mps 761 mmHg 46%
    17:00 +20°C° 0 mm 4 mps 761 mmHg 50%
    18:00 +19°C° 0 mm 3 mps 761 mmHg 54%
    19:00 +18°C° 0 mm 4 mps 761 mmHg 57%
    20:00 +17°C° 0 mm 4 mps 761 mmHg 60%
    21:00 +17°C° 0 mm 4 mps 761 mmHg 63%
    22:00 +15°C° 0 mm 4 mps 761 mmHg 65%
    23:00 +16°C° 0 mm 3 mps 761 mmHg 68%

    Tomorrow, 18 October, Friday

    Time Temperature Precipitation Wind Pressure Humidity
    00:00 +14°C° 0 mm 3 mps 760 mmHg 70%
    01:00 +14°C° 0 mm 3 mps 760 mmHg 73%
    02:00 +13°C° 0 mm 3 mps 760 mmHg 76%
    03:00 +13°C° 0 mm 3 mps 760 mmHg 78%
    04:00 +12°C° 0 mm 3 mps 760 mmHg 80%
    05:00 +12°C° 0 mm 3 mps 760 mmHg 82%
    06:00 +11°C° 0 mm 3 mps 760 mmHg 84%
    07:00 +12°C° 0 mm 3 mps 760 mmHg 81%
    08:00 +13°C° 0 mm 3 mps 760 mmHg 77%
    09:00 +14°C° 0 mm 3 mps 760 mmHg 73%
    10:00 +16°C° 0 mm 3 mps 760 mmHg 67%
    11:00 +18°C° 0 mm 3 mps 760 mmHg 60%
    12:00 +20°C° 0 mm 3 mps 760 mmHg 54%
    13:00 +20°C° 0 mm 3 mps 760 mmHg 52%
    14:00 +21°C° 0 mm 3 mps 759 mmHg 49%
    15:00 +23°C° 0 mm 2 mps 759 mmHg 46%
    16:00 +21°C° 0 mm 2 mps 759 mmHg 50%
    17:00 +20°C° 0 mm 2 mps 759 mmHg 54%
    18:00 +19°C° 0 mm 2 mps 759 mmHg 57%
    19:00 +18°C° 0 mm 2 mps 759 mmHg 59%
    20:00 +17°C° 0 mm 2 mps 759 mmHg 60%
    21:00 +17°C° 0 mm 2 mps 759 mmHg 61%
    22:00 +16°C° 0 mm 2 mps 759 mmHg 63%
    23:00 +16°C° 0 mm 2 mps 759 mmHg 64%

    Day after tomorrow, 19 October, Saturday

    Time Temperature Precipitation Wind Pressure Humidity
    00:00 +14°C° 0 mm 3 mps 760 mmHg 65%
    01:00 +14°C° 0 mm 3 mps 760 mmHg 67%
    02:00 +14°C° 0 mm 3 mps 760 mmHg 68%
    03:00 +13°C° 0 mm 3 mps 760 mmHg 69%
    04:00 +13°C° 0 mm 3 mps 760 mmHg 70%
    05:00 +13°C° 0 mm 3 mps 760 mmHg 71%
    06:00 +12°C° 0 mm 3 mps 761 mmHg 72%
    07:00 +13°C° 0 mm 3 mps 761 mmHg 68%
    08:00 +14°C° 0 mm 3 mps 761 mmHg 63%
    09:00 +16°C° 0 mm 3 mps 761 mmHg 59%
    10:00 +18°C° 0 mm 3 mps 761 mmHg 53%
    11:00 +19°C° 0 mm 3 mps 761 mmHg 47%
    12:00 +21°C° 0 mm 4 mps 762 mmHg 40%
    13:00 +22°C° 0 mm 3 mps 761 mmHg 38%
    14:00 +22°C° 0 mm 3 mps 761 mmHg 36%
    15:00 +24°C° 0 mm 3 mps 761 mmHg 34%
    16:00 +22°C° 0 mm 3 mps 761 mmHg 38%
    17:00 +20°C° 0 mm 3 mps 761 mmHg 41%
    18:00 +19°C° 0 mm 2 mps 761 mmHg 45%
    19:00 +18°C° 0 mm 3 mps 762 mmHg 47%
    20:00 +17°C° 0 mm 3 mps 762 mmHg 49%
    21:00 +17°C° 0 mm 3 mps 762 mmHg 52%
    22:00 +16°C° 0 mm 3 mps 762 mmHg 54%
    23:00 +16°C° 0 mm 3 mps 762 mmHg 56%

    20 October, Sunday

    Time Temperature Precipitation Wind Pressure Humidity
    00:00 +14°C° 0 mm 3 mps 762 mmHg 58%
    01:00 +14°C° 0 mm 3 mps 763 mmHg 60%
    02:00 +13°C° 0 mm 3 mps 763 mmHg 62%
    03:00 +13°C° 0 mm 3 mps 763 mmHg 64%
    04:00 +12°C° 0 mm 3 mps 763 mmHg 66%
    05:00 +12°C° 0 mm 3 mps 763 mmHg 69%
    06:00 +12°C° 0 mm 3 mps 763 mmHg 71%
    07:00 +13°C° 0 mm 4 mps 763 mmHg 67%
    08:00 +14°C° 0 mm 4 mps 764 mmHg 64%
    09:00 +15°C° 0 mm 4 mps 764 mmHg 60%
    10:00 +16°C° 0 mm 5 mps 764 mmHg 54%
    11:00 +19°C° 0 mm 5 mps 764 mmHg 48%
    12:00 +21°C° 0 mm 5 mps 764 mmHg 41%
    13:00 +21°C° 0 mm 5 mps 764 mmHg 40%
    14:00 +22°C° 0 mm 5 mps 764 mmHg 39%
    15:00 +22°C° 0 mm 4 mps 763 mmHg 37%
    16:00 +21°C° 0 mm 4 mps 763 mmHg 41%
    17:00 +20°C° 0 mm 4 mps 763 mmHg 45%
    18:00 +18°C° 0 mm 3 mps 763 mmHg 49%
    19:00 +18°C° 0 mm 4 mps 764 mmHg 53%
    20:00 +17°C° 0 mm 4 mps 764 mmHg 58%
    21:00 +15°C° 0 mm 4 mps 764 mmHg 62%
    22:00 +15°C° 0 mm 4 mps 764 mmHg 66%
    23:00 +14°C° 0 mm 4 mps 764 mmHg 70%

    21 October, Monday

    Time Temperature Precipitation Wind Pressure Humidity
    00:00 +14°C° 0 mm 4 mps 764 mmHg 74%
    01:00 +13°C° 0 mm 3 mps 764 mmHg 75%
    02:00 +13°C° 0 mm 3 mps 764 mmHg 77%
    03:00 +12°C° 0 mm 3 mps 764 mmHg 78%
    04:00 +12°C° 0 mm 3 mps 764 mmHg 77%
    05:00 +11°C° 0 mm 3 mps 764 mmHg 77%
    06:00 +11°C° 0 mm 3 mps 765 mmHg 76%
    07:00 +12°C° 0 mm 4 mps 765 mmHg 72%
    08:00 +13°C° 0 mm 4 mps 765 mmHg 67%
    09:00 +14°C° 0 mm 4 mps 765 mmHg 63%
    10:00 +15°C° 0 mm 4 mps 765 mmHg 57%
    11:00 +17°C° 0 mm 5 mps 765 mmHg 51%
    12:00 +20°C° 0 mm 5 mps 765 mmHg 45%
    13:00 +20°C° 0 mm 4 mps 764 mmHg 44%
    14:00 +21°C° 0 mm 4 mps 764 mmHg 43%
    15:00 +21°C° 0 mm 4 mps 764 mmHg 41%
    16:00 +20°C° 0 mm 4 mps 764 mmHg 45%
    17:00 +19°C° 0 mm 3 mps 764 mmHg 49%
    18:00 +17°C° 0 mm 3 mps 763 mmHg 53%
    19:00 +17°C° 0 mm 3 mps 764 mmHg 55%
    20:00 +16°C° 0 mm 3 mps 764 mmHg 58%
    21:00 +14°C° 0 mm 3 mps 764 mmHg 60%
    22:00 +14°C° 0 mm 3 mps 764 mmHg 62%
    23:00 +13°C° 0 mm 3 mps 764 mmHg 64%

    22 October, Tuesday

    Time Temperature Precipitation Wind Pressure Humidity
    00:00 +13°C° 0 mm 3 mps 764 mmHg 66%
    01:00 +12°C° 0 mm 3 mps 764 mmHg 67%
    02:00 +12°C° 0 mm 3 mps 764 mmHg 68%
    03:00 +11°C° 0 mm 3 mps 763 mmHg 70%
    04:00 +11°C° 0 mm 3 mps 764 mmHg 71%
    05:00 +11°C° 0 mm 3 mps 764 mmHg 72%
    06:00 +10°C° 0 mm 3 mps 764 mmHg 73%
    07:00 +11°C° 0 mm 3 mps 764 mmHg 69%
    08:00 +12°C° 0 mm 3 mps 764 mmHg 65%
    09:00 +13°C° 0 mm 3 mps 764 mmHg 62%
    10:00 +14°C° 0 mm 3 mps 764 mmHg 55%
    11:00 +17°C° 0 mm 3 mps 763 mmHg 48%
    12:00 +19°C° 0 mm 3 mps 763 mmHg 42%
    13:00 +19°C° 0 mm 3 mps 763 mmHg 40%
    14:00 +20°C° 0 mm 3 mps 763 mmHg 37%
    15:00 +20°C° 0 mm 3 mps 762 mmHg 35%
    16:00 +19°C° 0 mm 2 mps 762 mmHg 38%
    17:00 +18°C° 0 mm 2 mps 762 mmHg 42%
    18:00 +18°C° 0 mm 1 mps 761 mmHg 45%
    19:00 +16°C° 0 mm 1 mps 762 mmHg 47%
    20:00 +16°C° 0 mm 1 mps 762 mmHg 49%
    21:00 +15°C° 0 mm 1 mps 762 mmHg 52%
    22:00 +14°C° 0 mm 1 mps 761 mmHg 55%
    23:00 +14°C° 0 mm 1 mps 761 mmHg 58%
    Show more